Location: Bishop�s Knoyle
(51.0728°N, 2.1714°W)
Time: 21:38:48
(UTC+00:00)

N. Korean satellite - Pass Details

Date: 05 October 2021
Orbit: 450 x 495 km, 97.3° (Epoch: 23 October)

Event Time Altitude Azimuth Distance (km) Brightness Sun altitude
Rises 05:04:23 0° 19° (NNE) 2,560 10.6 -12.0°
Reaches altitude 10° 05:06:33 10° 28° (NNE) 1,682 9.8 -11.7°
Maximum altitude 05:09:57 38° 98° (E) 766 8.2 -11.1°
Drops below altitude 10° 05:13:22 10° 167° (SSE) 1,685 9.4 -10.6°
Sets 05:15:32 0° 176° (S) 2,566 10.2 -10.3°
